Torna al catalogo

SELENE

AttivoScienzaSSO
NORAD 69020·PAYLOAD·🇫🇷 France

Lanciato May 3, 2026 da Vandenberg Space Force Base

Loading…

Prossimi Passaggi (prossime 24 ore)

TLE

AggiornatoSource: Space-Track

Epoca: Sep 14, 2026, 10:13 UTC

1 69020U 26100AS  26257.42637299  .00003988  00000-0  18452-3 0  9991
2 69020  97.3908 153.5177 0005303  47.4094 312.7588 15.20696597 20368

Traccia SELENE in tempo reale con AllMySat

Download on the App Store